GW6181 Weather Reports


time (UTC)temp
F
wind
direction
speed
knots
gust
knots
rain 1hr
in
rain 24hr
in
rain mn
in
humidity
%
barometer
mb
20260510203517 66 49 0.9 2.6 0.00 0.00 0.00 64 1012.0
20260510203017 67 65 4.3 6.1 0.00 0.00 0.00 60 1012.0
20260510202517 67 11 2.6 4.3 0.00 0.00 0.00 59 1012.0
20260510202016 68 89 2.6 4.3 0.00 0.00 0.00 57 1012.0
20260510201516 68 21 0.0 4.3 0.00 0.00 0.00 56 1012.0
20260510201016 68 271 1.7 3.5 0.00 0.00 0.00 55 1011.0
20260510200517 69 241 1.7 2.6 0.00 0.00 0.00 54 1011.0
20260510200017 69 305 0.0 3.5 0.00 0.00 0.00 53 1011.0
20260510195518 69 168 3.5 3.5 0.00 0.00 0.00 52 1011.0
20260510195017 69 250 1.7 4.3 0.00 0.00 0.00 50 1011.0
20260510194517 70 283 3.5 3.5 0.00 0.00 0.00 50 1011.0
20260510194016 70 25 0.9 4.3 0.00 0.00 0.00 49 1011.0
20260510193517 71 345 4.3 5.2 0.00 0.00 0.00 48 1011.0
20260510193018 71 273 1.7 2.6 0.00 0.00 0.00 49 1011.0
20260510192516 73 94 1.7 2.6 0.00 0.00 0.00 47 1011.0
20260510192017 74 349 3.5 4.3 0.00 0.00 0.00 44 1011.0
20260510191517 73 311 0.9 4.3 0.00 0.00 0.00 45 1011.0
20260510191017 73 308 0.9 4.3 0.00 0.00 0.00 46 1011.0
20260510190516 74 339 3.5 5.2 0.00 0.00 0.00 43 1011.0
20260510190016 75 332 1.7 4.3 0.00 0.00 0.00 49 1011.0
20260510185517 75 296 0.0 2.6 0.00 0.00 0.00 47 1011.0
20260510185016 74 296 0.9 4.3 0.00 0.00 0.00 48 1011.0
20260510184517 74 206 1.7 3.5 0.00 0.00 0.00 50 1011.0
20260510184016 73 110 0.0 2.6 0.00 0.00 0.00 52 1011.0
20260510183516 73 213 0.9 2.6 0.00 0.00 0.00 53 1011.0
20260510183016 73 325 0.0 2.6 0.00 0.00 0.00 52 1011.0
20260510182516 73 135 0.0 3.5 0.00 0.00 0.00 53 1011.0
20260510182016 74 191 0.0 0.0 0.00 0.00 0.00 53 1011.0
20260510181516 74 220 0.9 1.7 0.00 0.00 0.00 51 1011.0
20260510181016 73 82 0.9 2.6 0.00 0.00 0.00 51 1011.0
20260510180517 73 297 0.0 3.5 0.00 0.00 0.00 52 1011.0
20260510180016 73 232 1.7 6.1 0.00 0.00 0.00 51 1011.0
20260510175517 73 328 0.0 2.6 0.00 0.00 0.00 55 1011.0
20260510175016 73 332 2.6 3.5 0.00 0.00 0.00 54 1011.0
20260510174516 73 250 1.7 2.6 0.00 0.00 0.00 53 1011.0
20260510174017 75 130 0.9 2.6 0.00 0.00 0.00 53 1011.0
20260510173517 75 257 0.9 2.6 0.00 0.00 0.00 53 1011.0
20260510173016 75 331 0.9 6.1 0.00 0.00 0.00 53 1011.0
20260510172516 75 298 2.6 3.5 0.00 0.00 0.00 53 1011.0
20260510172016 74 248 1.7 2.6 0.00 0.00 0.00 58 1011.0
20260510171516 73 217 1.7 5.2 0.00 0.00 0.00 56 1011.0
20260510171017 73 193 1.7 3.5 0.00 0.00 0.00 58 1011.0
20260510170517 72 335 0.9 2.6 0.00 0.00 0.00 59 1011.0
20260510170016 73 237 2.6 2.6 0.00 0.00 0.00 58 1011.0
20260510165517 72 200 2.6 3.5 0.00 0.00 0.00 59 1011.0
20260510165016 73 7 4.3 4.3 0.00 0.00 0.00 58 1011.0
20260510164516 72 246 0.0 2.6 0.00 0.00 0.00 62 1011.0
20260510164018 71 125 0.0 2.6 0.00 0.00 0.00 60 1011.0
20260510163517 71 44 1.7 3.5 0.00 0.00 0.00 62 1011.0
20260510163017 71 169 0.0 3.5 0.00 0.00 0.00 61 1011.0
20260510162517 69 286 1.7 2.6 0.00 0.00 0.00 66 1011.0
20260510162018 70 29 2.6 5.2 0.00 0.00 0.00 63 1011.0
20260510161516 70 20 0.0 2.6 0.00 0.00 0.00 66 1011.0
20260510161017 68 204 1.7 3.5 0.00 0.00 0.00 71 1011.0
20260510160516 67 37 1.7 1.7 0.00 0.00 0.00 73 1012.0
20260510160016 67 160 0.9 2.6 0.00 0.00 0.00 74 1012.0
20260510155517 66 179 1.7 1.7 0.00 0.00 0.00 76 1012.0
20260510155016 66 222 0.9 1.7 0.00 0.00 0.00 75 1012.0
20260510154516 65 212 0.0 2.6 0.00 0.00 0.00 78 1012.0
20260510154016 64 199 0.0 1.7 0.00 0.00 0.00 81 1012.0
20260510153516 63 191 0.0 2.6 0.00 0.00 0.00 81 1012.0
20260510153016 62 124 0.0 1.7 0.00 0.00 0.00 83 1012.0
20260510152517 62 136 0.0 2.6 0.00 0.00 0.00 84 1012.0
20260510152016 62 44 0.0 2.6 0.00 0.00 0.00 84 1012.0
20260510151517 62 179 1.7 2.6 0.00 0.00 0.00 84 1012.0
20260510151016 61 175 0.9 1.7 0.00 0.00 0.00 86 1012.0
20260510150516 60 282 0.0 2.6 0.00 0.00 0.00 88 1012.0
20260510150016 59 13 0.0 1.7 0.00 0.00 0.00 90 1012.0
20260510145516 59 173 0.0 0.9 0.00 0.00 0.00 89 1012.0
20260510145016 59 186 0.0 1.7 0.00 0.00 0.00 90 1012.0
20260510144517 58 76 0.0 1.7 0.00 0.00 0.00 91 1012.0
20260510144016 58 182 0.9 2.6 0.00 0.00 0.00 94 1012.0
20260510143516 57 124 0.0 0.9 0.00 0.00 0.00 97 1012.0
20260510143016 57 62 0.0 0.9 0.00 0.00 0.00 97 1012.0
20260510142520 56 88 0.0 1.7 0.00 0.00 0.00 98 1012.0
20260510142017 56 127 1.7 1.7 0.00 0.00 0.00 98 1012.0
20260510141518 56 145 0.0 1.7 0.00 0.00 0.00 99 1012.0
20260510141016 55 157 0.0 0.9 0.00 0.00 0.00 99 1012.0
20260510140517 55 126 0.9 1.7 0.00 0.00 0.00 99 1012.0
20260510140016 55 135 0.0 1.7 0.00 0.00 0.00 99 1012.0
20260510135517 55 162 0.0 1.7 0.00 0.00 0.00 99 1012.0
20260510135016 55 117 0.0 1.7 0.00 0.00 0.00 99 1012.0
20260510134517 55 125 0.0 0.9 0.00 0.00 0.00 99 1012.0
20260510134016 54 108 0.0 1.7 0.00 0.00 0.00 99 1012.0
20260510133516 54 188 1.7 1.7 0.00 0.00 0.00 99 1012.0
20260510133017 54 169 0.9 2.6 0.00 0.00 0.00 99 1012.0
20260510132516 54 170 0.9 1.7 0.00 0.00 0.00 99 1012.0
20260510132016 54 137 1.7 2.6 0.00 0.00 0.00 99 1012.0
20260510131516 54 26 1.7 1.7 0.00 0.00 0.00 99 1012.0
20260510131016 54 148 0.9 1.7 0.00 0.00 0.00 99 1012.0
20260510130517 54 147 0.0 0.9 0.00 0.00 0.00 99 1012.0
20260510130017 54 121 0.0 1.7 0.00 0.00 0.00 99 1012.0
20260510125517 54 44 0.0 0.9 0.00 0.00 0.00 98 1012.0
20260510125018 53 71 0.0 1.7 0.00 0.00 0.00 99 1012.0
20260510124516 53 52 0.0 0.9 0.00 0.00 0.00 99 1012.0
20260510124017 53 70 0.9 4.3 0.00 0.00 0.00 99 1012.0
20260510123517 53 337 0.9 3.5 0.00 0.00 0.00 99 1012.0
20260510123017 52 0 1.7 6.1 0.00 0.00 0.00 98 1012.0
20260510122516 52 178 0.9 3.5 0.00 0.00 0.00 99 1012.0
20260510122016 52 79 0.0 3.5 0.00 0.00 0.00 99 1011.0
20260510121517 51 60 0.0 2.6 0.00 0.00 0.00 99 1012.0
20260510121016 51 112 0.9 2.6 0.00 0.00 0.00 99 1012.0
20260510120516 51 320 2.6 2.6 0.00 0.00 0.00 99 1012.0
20260510120016 50 39 1.7 3.5 0.00 0.00 0.00 99 1011.0
20260510115516 50 350 2.6 4.3 0.00 0.00 0.00 99 1011.0
20260510115016 50 38 1.7 4.3 0.00 0.00 0.00 99 1011.0
20260510114517 50 271 0.0 2.6 0.00 0.00 0.00 99 1011.0
20260510114016 50 41 0.0 1.7 0.00 0.00 0.00 99 1011.0
20260510113516 50 169 0.9 2.6 0.00 0.00 0.00 99 1011.0
20260510113016 50 157 0.9 4.3 0.00 0.00 0.00 99 1011.0
20260510112516 50 143 2.6 3.5 0.00 0.00 0.00 99 1011.0
20260510112016 50 142 2.6 4.3 0.00 0.00 0.00 99 1011.0
20260510111516 50 156 1.7 4.3 0.00 0.00 0.00 99 1011.0
20260510111016 50 164 1.7 5.2 0.00 0.00 0.00 99 1011.0
20260510110516 50 149 2.6 3.5 0.00 0.00 0.00 99 1011.0
20260510110017 50 304 1.7 4.3 0.00 0.00 0.00 99 1011.0
20260510105516 49 82 0.0 3.5 0.00 0.00 0.00 99 1011.0
20260510105017 49 241 0.0 2.6 0.00 0.00 0.00 99 1011.0
20260510104517 49 24 1.7 3.5 0.00 0.00 0.00 99 1011.0
20260510104017 49 100 0.9 2.6 0.00 0.00 0.00 99 1011.0
20260510103516 49 102 2.6 3.5 0.00 0.00 0.00 99 1011.0
20260510103017 49 91 0.0 2.6 0.00 0.00 0.00 99 1010.0
20260510102517 49 218 1.7 1.7 0.00 0.00 0.00 99 1011.0
20260510102016 49 23 0.0 1.7 0.00 0.00 0.00 99 1011.0
20260510101516 49 65 0.0 4.3 0.00 0.00 0.00 99 1011.0
20260510101016 49 146 0.0 3.5 0.00 0.00 0.00 99 1010.0
20260510100516 49 231 0.0 3.5 0.00 0.00 0.00 99 1010.0
20260510100016 49 37 2.6 4.3 0.00 0.00 0.00 99 1011.0
20260510095516 49 94 1.7 2.6 0.00 0.00 0.00 99 1011.0
20260510095016 49 96 0.0 2.6 0.00 0.00 0.00 99 1011.0
20260510094518 49 104 0.9 3.5 0.00 0.00 0.00 99 1011.0
20260510094018 49 147 0.0 4.3 0.00 0.00 0.00 99 1011.0
20260510093517 49 304 1.7 2.6 0.00 0.00 0.00 99 1010.0
20260510093016 49 175 1.7 3.5 0.00 0.00 0.00 99 1011.0
20260510092517 49 242 2.6 3.5 0.00 0.00 0.00 99 1010.0
20260510092017 48 86 0.0 4.3 0.00 0.00 0.00 99 1010.0
20260510091516 48 166 0.9 2.6 0.00 0.00 0.00 99 1011.0
20260510091016 48 168 0.9 6.1 0.00 0.00 0.00 99 1011.0
20260510090516 49 175 1.7 4.3 0.00 0.00 0.00 99 1011.0
20260510090017 49 36 3.5 4.3 0.00 0.00 0.00 99 1011.0
20260510085517 49 102 3.5 5.2 0.00 0.00 0.00 99 1011.0
20260510085017 49 33 0.9 3.5 0.00 0.00 0.00 99 1011.0
20260510084516 49 50 0.9 2.6 0.00 0.00 0.00 98 1011.0
20260510084017 49 65 1.7 2.6 0.00 0.00 0.00 98 1011.0
20260510083516 48 359 2.6 2.6 0.00 0.00 0.00 99 1011.0
20260510083016 48 30 0.0 2.6 0.00 0.00 0.00 99 1011.0
20260510082516 48 1 1.7 2.6 0.00 0.00 0.00 99 1011.0
20260510082017 48 6 1.7 2.6 0.00 0.00 0.00 98 1011.0
20260510081516 48 36 0.9 2.6 0.00 0.00 0.00 98 1011.0
20260510081016 48 11 1.7 2.6 0.00 0.00 0.00 98 1011.0
20260510080516 48 176 1.7 4.3 0.00 0.00 0.00 98 1010.0
20260510080016 48 12 1.7 3.5 0.00 0.00 0.00 99 1011.0
20260510075516 48 58 0.0 0.0 0.00 0.00 0.00 99 1010.0
20260510075016 48 51 0.0 0.0 0.00 0.00 0.00 99 1010.0
20260510074516 48 49 0.0 0.9 0.00 0.00 0.00 99 1010.0
20260510074016 48 43 0.0 0.9 0.00 0.00 0.00 99 1010.0
20260510073516 48 50 0.0 0.9 0.00 0.00 0.00 99 1010.0
20260510073016 48 44 0.0 0.0 0.00 0.00 0.00 99 1010.0
20260510072516 48 66 0.0 0.9 0.00 0.00 0.00 98 1010.0
20260510072016 48 32 0.0 0.9 0.00 0.00 0.00 99 1010.0
20260510071516 48 50 0.0 0.0 0.00 0.00 0.00 99 1010.0
20260510071016 49 53 0.0 0.9 0.00 0.00 0.00 99 1010.0
20260510070516 49 89 0.0 0.9 0.00 0.00 0.00 99 1010.0
20260510070016 49 17 0.0 0.9 0.00 0.00 0.00 99 1010.0
20260510065517 49 62 0.0 0.0 0.00 0.00 0.00 98 1010.0
20260510065016 49 62 0.0 0.9 0.00 0.00 0.00 98 1010.0
20260510064517 49 55 1.7 1.7 0.00 0.00 0.00 99 1010.0
20260510064016 49 75 2.6 2.6 0.00 0.00 0.00 99 1010.0
20260510063517 49 45 2.6 3.5 0.00 0.00 0.00 99 1010.0
20260510063016 49 86 0.0 1.7 0.00 0.00 0.00 99 1010.0
20260510062516 49 117 0.0 0.9 0.00 0.00 0.00 99 1010.0
20260510062016 50 217 0.0 0.9 0.00 0.00 0.00 99 1010.0
20260510061516 50 54 0.0 0.9 0.00 0.00 0.00 99 1010.0
20260510061018 50 51 0.0 1.7 0.00 0.00 0.00 98 1010.0
20260510060516 50 60 0.0 0.9 0.00 0.00 0.00 98 1010.0
20260510060016 50 55 0.0 0.0 0.00 0.00 0.00 98 1010.0
20260510055518 50 113 0.0 0.0 0.00 0.00 0.00 98 1010.0
20260510055016 50 62 0.0 0.9 0.00 0.00 0.00 98 1010.0
20260510054517 50 120 0.0 0.9 0.00 0.00 0.00 98 1010.0
20260510054017 50 50 0.0 0.9 0.00 0.00 0.00 98 1010.0
20260510053516 50 32 0.0 0.0 0.00 0.00 0.00 98 1010.0
20260510053016 50 89 0.0 1.7 0.00 0.00 0.00 98 1010.0
20260510052516 50 135 0.0 0.9 0.00 0.00 0.00 98 1010.0
20260510052017 50 66 0.0 0.0 0.00 0.00 0.00 98 1010.0
20260510051516 50 69 0.0 0.0 0.00 0.00 0.00 98 1010.0
20260510051016 50 94 0.0 0.0 0.00 0.00 0.00 98 1010.0
20260510050516 50 62 0.0 0.0 0.00 0.00 0.00 98 1010.0
20260510050016 50 69 0.0 0.0 0.00 0.00 0.00 98 1010.0
20260510045516 50 62 0.0 0.0 0.00 0.00 0.00 98 1010.0
20260510045016 50 66 0.0 0.0 0.00 0.00 0.00 98 1010.0
20260510044516 50 62 0.0 0.0 0.00 0.00 0.00 98 1010.0
20260510044018 50 62 0.0 0.0 0.00 0.00 0.00 97 1010.0
20260510043517 50 44 0.0 0.0 0.00 0.00 0.00 97 1010.0
20260510043017 50 50 0.0 0.0 0.00 0.00 0.00 97 1010.0
20260510042516 49 89 0.9 0.9 0.00 0.00 0.00 98 1010.0
20260510042017 49 117 0.0 0.0 0.00 0.00 0.00 98 1010.0
20260510041516 49 129 0.0 0.0 0.00 0.00 0.00 98 1010.0
20260510041016 49 230 0.0 0.0 0.00 0.00 0.00 98 1010.0
20260510040517 49 135 0.0 0.0 0.00 0.00 0.00 98 1010.0
20260510040016 49 135 0.0 0.0 0.00 0.00 0.00 98 1010.0
20260510035518 49 135 0.0 0.0 0.00 0.00 0.00 98 1010.0
20260510035016 49 142 0.0 0.9 0.00 0.00 0.00 99 1010.0
20260510034516 49 62 0.0 0.9 0.00 0.00 0.00 99 1010.0
20260510034016 50 25 0.0 0.0 0.00 0.00 0.00 98 1010.0
20260510033516 51 122 0.0 0.9 0.00 0.00 0.00 97 1010.0
20260510033016 51 129 0.0 0.9 0.00 0.00 0.00 97 1010.0
20260510032518 51 130 0.0 0.9 0.00 0.00 0.00 97 1010.0
20260510032016 51 133 0.9 0.9 0.00 0.00 0.00 97 1010.0
20260510031516 51 142 0.0 0.9 0.00 0.00 0.00 97 1010.0
20260510031021 51 111 0.9 1.7 0.00 0.00 0.00 97 1010.0
20260510030516 50 55 0.0 0.9 0.00 0.00 0.00 98 1010.0
20260510030016 50 113 0.0 0.0 0.00 0.00 0.00 97 1010.0
20260510025516 50 117 0.0 0.0 0.00 0.00 0.00 97 1010.0
20260510025016 50 117 0.0 0.9 0.00 0.00 0.00 97 1010.0
20260510024517 50 144 0.0 0.0 0.00 0.00 0.00 97 1010.0
20260510024017 50 140 0.0 0.9 0.00 0.00 0.00 97 1010.0
20260510023517 50 141 0.0 0.0 0.00 0.00 0.00 97 1010.0
20260510023017 50 142 0.0 0.9 0.00 0.00 0.00 97 1010.0
20260510022516 50 69 0.0 0.0 0.00 0.00 0.00 97 1010.0
20260510022016 50 89 0.0 0.9 0.00 0.00 0.00 97 1010.0
20260510021519 50 129 0.0 0.0 0.00 0.00 0.00 97 1010.0
20260510021016 50 154 0.0 0.9 0.00 0.00 0.00 97 1010.0
20260510020516 50 37 0.0 0.0 0.00 0.00 0.00 97 1010.0
20260510020016 50 138 0.0 0.9 0.00 0.00 0.00 97 1010.0
20260510015516 50 154 0.0 0.0 0.00 0.00 0.00 97 1010.0
20260510015016 51 242 0.0 0.0 0.00 0.00 0.00 97 1010.0
20260510014517 51 154 0.0 0.0 0.00 0.00 0.00 97 1010.0
20260510014018 51 135 0.0 0.0 0.00 0.00 0.00 97 1010.0
20260510013516 51 154 0.0 0.9 0.00 0.00 0.00 97 1010.0
20260510013017 51 147 0.0 0.0 0.00 0.00 0.00 97 1010.0
20260510012516 51 138 0.9 0.9 0.00 0.00 0.00 96 1010.0
20260510012016 51 253 0.0 0.0 0.00 0.00 0.00 96 1010.0
20260510011517 51 248 0.0 0.9 0.00 0.00 0.00 96 1010.0
20260510011016 50 142 0.0 0.0 0.00 0.00 0.00 96 1010.0
20260510010517 50 37 0.0 0.0 0.00 0.00 0.00 96 1010.0
20260510010016 51 117 0.0 0.0 0.00 0.00 0.00 96 1010.0
20260510005516 51 294 0.0 0.0 0.00 0.00 0.00 96 1009.0
20260510005016 51 240 0.0 0.9 0.00 0.00 0.00 96 1009.0
20260510004516 51 315 0.0 0.0 0.00 0.00 0.00 96 1009.0
20260510004016 51 129 0.0 0.9 0.00 0.00 0.00 96 1009.0
20260510003518 51 142 0.0 0.9 0.00 0.00 0.00 96 1009.0
20260510003017 51 25 0.0 0.0 0.00 0.00 0.00 96 1009.0
20260510002516 51 25 0.0 0.9 0.00 0.00 0.00 96 1009.0
20260510002017 51 62 0.0 0.0 0.00 0.00 0.00 96 1009.0
20260510001516 51 154 0.9 0.9 0.00 0.00 0.00 96 1009.0
20260510001016 52 129 0.0 0.0 0.00 0.00 0.00 96 1009.0
20260510000516 52 122 0.0 0.0 0.00 0.00 0.00 96 1009.0
20260510000016 52 37 0.0 0.0 0.00 0.00 0.00 96 1009.0
20260509235516 52 117 0.0 0.9 0.00 0.00 0.00 96 1009.0
20260509235016 53 66 0.0 0.9 0.00 0.00 0.00 96 1009.0
20260509234516 53 39 0.0 0.9 0.00 0.00 0.00 96 1009.0
20260509234017 53 62 0.0 0.9 0.00 0.00 0.00 96 1009.0
20260509233516 53 126 0.0 0.9 0.00 0.00 0.00 96 1009.0
20260509233016 53 46 0.0 0.9 0.00 0.00 0.00 96 1009.0
20260509232516 53 66 0.0 0.0 0.00 0.00 0.00 96 1009.0
20260509232016 53 117 0.0 0.9 0.00 0.00 0.00 96 1009.0
20260509231516 53 119 0.0 0.9 0.00 0.00 0.00 96 1009.0
20260509231017 53 147 0.0 1.7 0.00 0.00 0.00 97 1009.0
20260509230517 54 141 0.0 0.9 0.00 0.00 0.00 96 1009.0
20260509230017 54 117 0.0 0.9 0.00 0.00 0.00 96 1009.0
20260509225516 54 67 0.0 1.7 0.00 0.00 0.00 96 1009.0
20260509225016 54 25 0.0 0.9 0.00 0.00 0.00 96 1009.0
20260509224519 54 123 0.0 0.9 0.00 0.00 0.00 96 1009.0
20260509224017 54 135 0.0 0.9 0.00 0.00 0.00 96 1009.0
20260509223516 54 31 0.0 0.9 0.00 0.00 0.00 96 1009.0
20260509223016 53 37 0.0 0.9 0.00 0.00 0.00 96 1009.0
20260509222516 53 60 0.9 1.7 0.00 0.00 0.00 96 1009.0
20260509222016 53 154 0.0 0.9 0.00 0.00 0.00 96 1009.0
20260509221516 53 154 0.0 0.0 0.00 0.00 0.00 96 1009.0
20260509221017 53 193 0.0 0.9 0.00 0.00 0.00 96 1009.0
20260509220516 53 154 0.0 1.7 0.00 0.00 0.00 96 1009.0
20260509220016 53 56 0.9 0.9 0.00 0.00 0.00 96 1009.0
20260509215516 54 89 0.0 0.9 0.00 0.00 0.00 96 1009.0
20260509215016 54 103 0.0 0.9 0.00 0.00 0.00 95 1009.0
20260509214516 53 36 0.9 0.9 0.00 0.00 0.00 95 1009.0
20260509214016 53 156 0.0 0.9 0.00 0.00 0.00 95 1009.0
20260509213516 53 80 0.0 0.9 0.00 0.00 0.00 95 1009.0
20260509213016 53 122 1.7 2.6 0.00 0.00 0.00 95 1009.0
20260509212520 53 165 0.0 1.7 0.00 0.00 0.00 95 1009.0
20260509212016 53 135 1.7 2.6 0.00 0.00 0.00 95 1009.0
20260509211518 53 115 1.7 2.6 0.00 0.00 0.00 95 1009.0
20260509211017 53 86 0.9 1.7 0.00 0.00 0.00 94 1009.0
20260509210519 53 124 0.0 2.6 0.00 0.00 0.00 94 1009.0
20260509210016 53 129 1.7 2.6 0.00 0.00 0.00 94 1009.0
20260509205516 53 127 1.7 2.6 0.00 0.00 0.00 94 1009.0
20260509205017 53 136 1.7 2.6 0.00 0.00 0.00 94 1009.0
20260509204517 53 55 0.0 1.7 0.00 0.00 0.00 93 1009.0
20260509204016 53 44 0.0 1.7 0.00 0.00 0.00 93 1009.0